This demonstration page uses our WeatherBlox Daily Observations layout. Learn more.

Left ArrowRight Arrow

38.80484, -77.04692

Hourly Observations for May 23, 2022

Temp ( °F °C ) Dew Point ( °F °C ) Humidity (%) Winds ( mph kmh ) Pressure ( in mb ) Visibility ( mi km ) Precip ( " mm )
12:52 am 00:52 Partly Cloudy 72 22.2 65 18.3 79 79 NW 9 15 30.10 1019 10 16 0.00 0.00
1:52 am 01:52 Mostly Cloudy 71 21.7 63 17.2 76 76 NNW 13 20 30.12 1020 10 16 0.00 0.00
2:52 am 02:52 Mostly Cloudy 68 20 59 15 73 73 NW 14 22 30.13 1020 10 16 0.00 0.00
3:52 am 03:52 Mostly Cloudy 65 18.3 57 13.9 76 76 NNW 10 17 30.12 1020 10 16 0.00 0.00
4:52 am 04:52 Mostly Cloudy 64 17.8 54 12.2 70 70 NW 13 20 30.14 1021 10 16 0.00 0.00
5:52 am 05:52 Mostly Cloudy 63 17.2 54 12.2 73 73 NW 10 17 30.18 1022 10 16 0.00 0.00
6:52 am 06:52 Mostly Cloudy 63 17.2 54 12.2 73 73 NNW 12 19 30.19 1023 10 16 0.00 0.00
7:52 am 07:52 Mostly Cloudy 65 18.3 53 11.7 66 66 N 14 22 30.22 1023 10 16 0.00 0.00
8:52 am 08:52 Mostly Cloudy 66 18.9 50 10 56 56 NNE 17 28 30.23 1024 10 16 0.00 0.00
10:52 am 10:52 Mostly Cloudy 70 21.1 51 10.6 51 51 NNE 12 19 30.25 1025 10 16 0.00 0.00
11:52 am 11:52 Mostly Cloudy 71 21.7 50 10 47 47 NNE 6 9 30.24 1024 10 16 0.00 0.00
12:52 pm 12:52 Cloudy 74 23.3 51 10.6 45 45 N 9 15 30.23 1024 10 16 0.00 0.00
1:52 pm 13:52 Cloudy 75 23.9 50 10 41 41 NNE 7 11 30.21 1023 10 16 0.00 0.00
2:52 pm 14:52 Cloudy 73 22.8 49 9.4 43 43 NNE 8 13 30.19 1022 10 16 0.00 0.00
3:52 pm 15:52 Cloudy 72 22.2 49 9.4 44 44 NNE 7 11 30.19 1022 10 16 0.00 0.00
4:52 pm 16:52 Cloudy 71 21.7 49 9.4 46 46 N 10 17 30.19 1022 10 16 0.00 0.00
5:52 pm 17:52 Cloudy 71 21.7 49 9.4 46 46 N 9 15 30.19 1022 10 16 0.00 0.00
6:52 pm 18:52 Cloudy 70 21.1 50 10 49 49 N 15 24 30.16 1022 10 16 0.00 0.00
7:52 pm 19:52 Cloudy 68 20 49 9.4 51 51 N 13 20 30.20 1023 10 16 0.00 0.00
8:52 pm 20:52 Cloudy with Light Rain 65 18.3 51 10.6 61 61 N 9 15 30.21 1023 10 16 0.00 0.00
9:52 pm 21:52 Cloudy 64 17.8 51 10.6 63 63 NNE 9 15 30.21 1023 10 16 0.00 0.00
10:52 pm 22:52 Cloudy 64 17.8 51 10.6 63 63 NNE 10 17 30.20 1023 10 16 0.00 0.00
11:52 pm 23:52 Cloudy 63 17.2 52 11.1 68 68 NNE 10 17 30.20 1023 10 16 0.00 0.00

Powered by AerisWeather